Location: Cheching
(60.0667°N, 164.2167°W)
Time: 21:30:46
(UTC+00:00)

LilacSat-2 - Pass Details

Date: 25 January 2021
Orbit: 512 x 534 km, 97.5° (Epoch: 07 March)

Event Time Altitude Azimuth Distance (km) Brightness Sun altitude
Rises 18:10:06 0° 12° (NNE) 2,691 ? -8.9°
Reaches altitude 10° 18:12:22 10° 3° (N) 1,799 ? -8.7°
Maximum altitude 18:15:50 32° 299° (WNW) 936 ? -8.3°
Drops below altitude 10° 18:19:18 10° 236° (SW) 1,794 ? -7.9°
Sets 18:21:33 0° 226° (SW) 2,682 ? -7.6°
